THORAD DELTA 1 DEB, 8790

Orbit data source: Space-Track

THORAD DELTA 1 DEB, 8790 is space debris in SSO originally from a launch on Fri, 15 Nov 1974 UTC launched from the Air Force Western Test Range (AFWTR). Debris objects in space refer to the collection of defunct objects orbiting the Earth. Examples of debris include non-operational satellites, rocket bodies, and fragments generated from explosions, collisions, or faulty payload assembly.

Loading next visibility...
Identifier
8790, 1974-089DS
Orbit
SSO
Country
Flag of USUS
Related business
Manufacturer
Unknown
Mission
Spacecraft
Bus & Motor
Unknown
Mass
Unknown
Launch date (UTC)
1974-11-15 (51 years ago)
Launch vehicle
Unknown
Launch site
Air Force Western Test Range (AFWTR)
Object type
Payload
Rocket body
Debris
Shape & HBR
Unknown shape, 0.1 m
Radar Cross Section
Small (<0.1 m²)

Expand to show TLE details & history
Last TLE update: 7 hours ago

TLE from 7 hours ago
0 THORAD DELTA 1 DEB
1  8790U 74089DS  26035.53752706  .00000010  00000-0  32655-3 0  9998
2  8790 101.8686  41.6063 0037479 339.5644 173.0348 12.59088561351921
Epoch: 2026-02-04T12:54Z
TLE epoch observation values (Epoch: 2026-02-04T12:54:02.337Z)
Latitude
26.75343°
Longitude
-100.55444°
Altitude
1,458.721 km
Speed
7.122 km/s
True Right ascension
15h 10m 37s
True Declination
26° 37' 40"
Sunlit
Object was in daylight at epoch
Visualization orbit readout
Latitude
Unknown
Longitude
Unknown
Altitude
Unknown
Speed
Unknown
Apparent Right ascension
Unknown
Apparent Declination
Unknown
Sunlit
N/A
Visualization observer readout
Local Sidereal Time
21:24:09
Azimuth
Unknown
Elevation
Unknown
Doppler factor
Unknown
Orbital elements
Apogee altitude
1,453.493 km
Perigee altitude
1,395.008 km
Semi-major axis
7,802.388 km
Eccentricity
0.00375
Inclination
101.8686°
RAAN
41.6063°
Arg. of periapsis
339.5644°
True anomaly
173.08664°
Mean anomaly
173.0348°
Eccentric anomaly
173.06074°
Mean motion
3.14921 °/min
Orbital period
114.31 mins
BSTAR
0.00032655
Loading maneuver chart data...
Computing Atmospheric mass density...

Documentation

Showing up to 5 results
|